Location: Home
(42.5358°N, 72.7383°W)
Time: 09:39:47
(UTC-05:00)

Courier 1B - Pass Details

Date: 08 December 2021
Orbit: 962 x 1209 km, 28.3° (Epoch: 21 January)

Event Time Altitude Azimuth Distance (km) Brightness Sun altitude
Rises 15:59:23 0° 243° (WSW) 4,092 13.5 2.0°
Reaches altitude 10° 16:02:45 10° 232° (SW) 3,110 12.6 1.5°
Maximum altitude 16:08:57 27° 178° (S) 2,065 9.7 0.5°
Drops below altitude 10° 16:14:56 10° 124° (SE) 2,991 9.8 -0.4°
Sets 16:18:05 0° 113° (ESE) 3,908 10.3 -0.9°
